Powrót do katalogu

YURI

BSE

AktywnyŁącznośćGEO
NORAD 10792·PAYLOAD·🇯🇵 Japan

Wystrzelony Apr 7, 1978 z Cape Canaveral Space Force Station

Loading…

TLE

ŚwieżeSource: Space-Track

Epoka: Sep 14, 2026, 13:59 UTC

1 10792U 78039A   26257.58324772  .00000136  00000-0  00000-0 0  9996
2 10792   5.2555 283.0328 0020801 315.9933   5.1668  1.00272251119651

Śledź YURI w czasie rzeczywistym z AllMySat

Download on the App Store